SCP
0 0 0 0 0 0 0 0 0 0 0 0 0 0 0 0 0 0 0 0 0 0 0 0 0 0 0 0 0 0 0 0 0 0 0 0 0 0
0 0 0 0 0 0 0 0 0 0 0 0 0 0 0 0 0 0 0 0 0 0 0 0 0 0 0 0 0 0 0 0 0 0 0 0 0 0
0 0 0 0 0 0 0 0 0 0 0 0 0 -0 -0 -0 0 0 0 0 0 0 0 0 0 0 0 0 0 0 0 0 0 0 0 0 0 0
0 0 0 0 0 0 0 0 0 0 0 0 0 0 -0 -0 -0 0 0 0 0 0 0 0 0 0 0 0 0 0 0 0 0 0 0 0 0 0
0 0 0 0 0 0 0 0 0 0 0 0 0 0 -0 -0 -0 -0 0 0 0 0 0 0 0 0 0 0 0 0 0 0 0 0 0 0 0 0
0 0 0 0 0 0 0 0 0 0 0 0 0 0 -0 -0 -0 -0 0 0 0 0 0 0 0 0 0 0 0 0 0 0 0 0 0 0 0 0
0 0 0 0 0 0 0 0 0 0 0 0 0 0 -0 0 0 0 -0 0 0 0 0 0 0 0 0 0 0 0 0 0 0 0 0 0 0 0
0 0 0 0 0 0 0 0 0 0 0 0 0 0 0 0 0 0 0 0 0 0 0 0 0 0 0 0 0 0 0 0 0 0 0 0 0 0
0 0 0 0 0 0 0 0 0 0 0 0 0 0 0 0 0 0 0 0 0 0 0 0 0 0 0 0 0 0 0 0 0 0 0 0 0 0
0 0 0 0 0 0 0 0 0 0 0 0 0 0 0 0 0 0 0 0 0 0 0 0 0 0 0 0 0 0 0 0 0 0 0 0 0 0
0 0 0 0 0 0 0 0 0 0 0 0 0 0 0 0 0 0 0 0 0 0 0 0 0 0 0 0 0 0 0 0 0 0 0 0 0 0
0 0 0 0 0 0 0 0 0 0 0 0 0 0 0 0 0 0 0 0 -0 0 0 0 0 0 0 0 0 0 0 0 0 0 0 0 0 0
0 0 0 0 0 0 0 0 0 0 0 0 0 0 0 0 0 0 0 0 0 0 0 0 0 0 0 0 0 0 0 0 0 0 0 0 0 0
0 0 0 0 0 0 0 0 0 0 0 0 0 0 0 0 0 0 0 0 0 0 0 0 0 0 0 0 0 0 0 0 0 0 0 0 0 0
0 0 0 0 0 0 0 0 0 0 0 0 0 0 0 0 0 0 0 0 0 0 0 0 0 0 0 0 0 0 0 0 0 0 0 0 0 0
0 0 0 0 0 0 0 0 0 0 0 0 0 0 0 0 0 0 0 0 0 0 0 0 0 0 0 0 0 0 0 0 0 0 0 0 0 0
0 0 0 0 0 0 0 0 0 0 0 0 0 0 0 0 0 0 0 0 0 0 0 0 0 0 0 0 0 0 0 0 0 0 0 0 0 0
0 0 0 0 0 0 0 0 0 0 0 0 0 0 0 0 0 0 0 0 0 0 0 0 0 0 0 0 0 0 0 0 0 0 0 0 0 0
0 0 0 0 0 0 0 0 0 0 0 0 0 0 0 0 0 0 0 0 0 0 0 0 0 0 0 0 0 0 0 0 0 0 0 0 0 0
0 0 0 0 0 0 0 0 0 0 0 0 0 0 0 0 0 0 0 0 0 0 0 0 0 0 0 0 0 0 0 0 0 0 0 0 0 0
0 0 0 0 0 0 0 0 0 0 0 0 0 0 0 0 0 0 0 0 0 0 0 0 0 0 0 0 0 0 0 0 0 0 0 0 0 0
0 0 0 0 0 0 0 0 0 0 0 0 0 0 0 0 0 0 0 0 0 0 0 0 0 0 0 0 0 0 0 0 0 0 0 0 0 0
0 0 0 0 0 0 0 0 0 0 0 0 0 0 0 0 0 0 0 0 0 0 0 0 0 0 0 0 0 0 0 0 0 0 0 0 0 0
Wind_Speed
8 8 7 6 6 5 4 5 5 4 4 3 3 4 4 4 8 7 7 11 13 11 10 10 9 8 7 6 5 4 3 1 2 4 6 8 9 10
7 8 8 6 6 5 5 5 5 4 4 3 2 3 4 4 8 7 7 12 12 12 11 10 9 9 8 7 5 4 3 2 3 4 6 7 8 9
8 9 9 7 6 5 5 5 5 4 4 3 2 3 4 5 4 5 5 6 6 12 11 10 9 9 9 8 6 5 4 2 2 4 5 7 8 9
9 9 8 6 7 6 6 6 6 5 5 5 3 3 4 5 5 5 5 4 4 9 11 10 10 9 9 8 7 5 3 2 2 3 5 6 7 9
9 9 8 8 8 6 6 6 5 4 4 5 4 2 2 3 4 4 4 3 4 7 9 9 10 9 8 8 6 5 4 2 1 2 4 5 6 8
9 8 8 9 9 8 7 7 5 5 5 5 4 3 2 3 3 4 3 3 3 4 5 6 7 8 8 7 6 5 4 2 1 2 3 4 6 7
8 8 8 9 10 8 7 6 7 6 5 5 5 4 4 5 5 4 4 3 2 3 3 3 4 3 4 5 6 6 4 2 1 1 3 4 5 7
8 8 7 8 10 10 10 9 9 9 8 6 5 7 6 5 4 5 5 4 3 3 3 3 3 3 2 3 5 6 4 3 1 1 3 4 5 6
8 7 6 7 8 7 7 6 6 9 10 8 8 8 8 8 7 6 6 4 3 4 4 2 2 2 2 3 7 6 4 3 1 1 2 4 5 6
8 8 8 7 7 7 6 5 4 4 5 5 6 6 6 7 7 6 6 5 4 2 3 3 2 2 2 2 5 5 4 2 1 1 2 4 5 6
7 8 8 8 9 8 7 5 4 2 2 5 6 6 7 7 7 6 6 6 3 2 1 3 3 2 1 1 2 4 4 2 1 1 3 4 5 6
5 6 8 8 10 9 7 7 6 4 4 4 4 5 5 6 7 6 7 6 4 3 2 3 3 3 2 0 1 1 1 1 1 1 3 4 5 3
4 4 5 8 9 8 6 5 7 6 5 5 4 4 4 3 3 2 3 5 5 3 5 4 3 3 3 1 0 0 1 0 0 1 2 4 5 4
4 4 5 8 7 7 5 7 8 6 4 5 4 3 3 3 3 4 5 4 4 5 6 5 4 4 4 3 1 0 0 0 0 0 1 3 4 5
4 6 7 7 6 5 7 8 6 5 6 5 4 3 3 4 5 5 6 7 8 6 5 4 5 5 4 4 3 2 0 1 1 1 1 2 2 2
5 7 7 7 5 6 5 4 3 4 5 5 5 4 4 5 5 4 5 5 6 5 5 5 5 5 4 3 3 2 1 1 1 1 1 2 2 1
4 4 4 4 4 3 3 3 3 4 5 5 5 6 5 5 4 4 4 5 5 5 4 4 5 5 5 4 3 2 2 1 0 1 1 2 2 2
3 4 4 4 4 4 4 3 3 4 4 5 5 6 6 6 5 4 5 5 6 5 5 4 4 4 4 4 4 2 2 1 1 1 1 1 2 3
3 3 4 4 4 4 3 3 3 3 4 5 6 6 6 6 6 6 6 6 6 6 5 3 3 4 5 3 3 3 1 1 1 1 1 1 1 3
2 3 3 4 4 4 4 4 4 4 5 5 5 5 5 6 6 6 6 7 7 6 5 3 2 3 4 4 2 1 2 1 1 1 1 2 2 3
2 2 2 3 3 4 4 4 4 5 5 5 5 5 5 6 6 7 7 10 8 6 6 3 2 4 4 4 4 2 2 2 1 1 1 1 2 2
2 2 2 2 3 4 4 4 5 5 6 5 5 5 5 5 7 8 8 7 6 6 6 4 4 3 3 4 4 3 2 3 4 5 3 2 1 1
2 2 2 2 2 3 4 4 6 5 5 5 5 5 5 6 6 7 7 7 7 7 7 5 4 3 3 4 4 3 3 2 2 3 4 6 4 3
Wind_Direction
235 230 230 228 220 217 212 201 199 221 235 219 206 195 183 180 182 180 180 188 189 189 190 188 188 190 188 190 197 208 208 242 290 301 306 308 313 319
232 226 226 227 220 213 211 214 204 204 230 220 219 189 175 178 180 178 180 184 189 188 185 185 185 184 183 182 187 190 195 224 268 290 300 308 314 319
235 226 223 220 219 216 211 211 208 196 216 235 207 173 174 174 176 179 170 178 185 185 185 185 184 183 180 179 181 183 194 218 267 293 304 312 317 322
232 226 222 222 220 216 211 212 211 199 190 201 200 180 186 175 173 173 165 168 175 182 183 183 181 181 181 178 179 182 187 205 267 299 309 316 322 322
230 225 219 216 223 217 214 211 206 195 182 180 192 181 180 164 158 158 152 161 167 174 176 179 180 181 182 180 178 177 179 192 248 302 320 323 323 323
232 225 218 214 217 212 211 209 195 181 173 173 175 171 175 166 161 163 159 171 170 162 168 170 174 180 182 179 176 173 173 184 234 315 324 324 324 325
230 225 224 219 217 216 214 201 186 179 174 175 177 178 184 180 190 175 164 161 157 154 149 164 161 169 178 178 174 169 170 178 203 307 316 319 323 328
225 225 223 218 215 219 218 212 196 185 182 184 191 193 199 195 183 167 158 163 180 168 153 171 155 162 170 169 170 167 169 176 194 290 308 316 324 330
219 219 224 220 210 197 194 191 192 191 192 191 191 199 195 191 176 172 180 171 172 160 143 157 148 159 164 164 163 163 166 171 199 285 313 320 326 331
214 213 211 204 200 186 176 173 183 190 194 193 189 195 194 181 178 174 161 124 94 109 134 145 148 152 137 145 160 161 168 173 199 302 322 329 335 336
215 210 201 194 189 178 166 163 163 161 128 153 160 167 166 164 160 146 150 140 136 150 135 134 138 116 104 128 156 165 174 177 203 305 326 336 343 345
200 193 194 190 181 175 168 164 166 165 148 132 124 126 139 147 157 172 166 155 144 159 173 135 135 122 111 54 110 149 179 204 256 312 330 340 348 355
186 181 176 172 174 173 168 167 170 162 149 138 127 123 120 121 123 125 136 153 152 155 162 141 134 125 124 124 46 87 128 159 328 322 325 338 346 352
183 170 160 159 160 161 160 157 156 153 146 140 137 138 136 128 116 104 94 86 91 127 145 138 133 141 131 124 144 75 21 24 56 342 323 336 344 342
157 153 148 147 146 149 153 161 163 158 151 148 150 149 137 131 120 103 90 85 76 75 91 102 118 126 122 134 142 147 125 322 359 12 343 334 325 333
125 127 126 127 131 138 149 154 159 161 156 153 146 138 128 123 121 120 119 113 95 74 61 75 98 113 112 116 130 137 132 158 336 359 355 331 327 329
125 123 129 135 136 134 134 137 140 142 141 142 139 136 132 126 121 118 120 112 110 116 96 73 72 81 86 105 114 117 112 90 47 9 8 346 331 332
133 140 147 152 157 158 155 148 143 144 142 138 135 138 139 138 132 121 116 118 119 119 116 114 109 94 74 50 52 113 93 80 21 8 8 355 336 338
130 148 156 161 162 164 162 157 147 144 139 138 135 136 139 138 134 132 129 123 120 119 118 121 119 117 111 95 19 24 105 88 36 10 356 346 313 316
130 146 159 162 162 162 159 153 144 138 134 133 134 137 140 138 136 135 135 132 128 122 118 108 102 113 124 131 124 20 20 108 92 27 353 347 326 320
130 137 152 159 157 154 153 151 146 141 140 138 138 139 140 138 137 135 133 133 128 126 129 124 111 106 100 96 92 64 16 22 66 94 31 12 356 3
136 142 144 147 148 150 149 145 139 137 139 137 137 136 138 138 138 138 137 136 131 126 120 114 113 100 88 103 110 102 56 22 30 36 35 53 75 34
142 137 135 140 144 148 149 147 143 141 140 136 135 137 137 135 133 132 131 130 127 126 123 118 105 85 87 103 108 102 81 47 34 38 28 20 36 42